Member area
Imprimable
Challenges > Delhalle - Louette-Saint-Pierre, 27/07/2019, BEL - L'Ardennaise
List of reports > Delhalle - 21,2 km - Result
Search: Page: [1]
93 Entries
 
Complains are not accepted anymore. Results are final.
PlaceNrNameAgeNATLeagueTeamRealTimeTkmMoy.ScrPtsCity
1.3346CONIGLIO LORENZO48BELUAC1:21:591:22:053:53 15.50810756200
2.403POCHET ALEXANDRE42BELJCCS1:22:411:22:443:55 15.3891066GEDINNE
3.703BRUYÈRE PATRICK42BELBOUFFIOLS1:25:521:25:574:04 14.80161026CHÂTELET
4.110PONCELET XAVIER44BELCABWTRAKKS1:26:561:26:594:07 14.63191012VITRIVAL
5.2361VAN DER AUWERMEULEN JEAN- PHILIPPE41BELCSF1:27:341:27:394:09 14.51201005
6.2362VAN DEN KERCKHOVE OLIVIER40BEL1:29:301:29:354:14 14.2027980
7.2418SNOECK DIDIER49BELCEPAL1:30:511:30:574:18 13.9931963
8.3418FOUQUET BENJAMIN43FRAFFAGRAC ATHLÉTISME1:32:191:32:254:22 13.7734946FUMAY
9.1403WEETS OLIVIER48BELCEPAL1:34:011:34:074:27 13.5240925LINKEBEEK
10.407PAQUET OLIVIER43BELJACOJACO1:34:071:34:124:27 13.5041923COUVIN
11.3530BODART OLIVIER49BELCSDYANTILOB1:35:131:35:204:30 13.3443911COURT-SAINT-ETIENNE
12.3599THIRION XAVIER47BELJAMES1:35:591:36:084:33 13.2352897.
13.2366BATPICK RONALD41BEL1:36:421:36:524:35 13.1361884
14.3533DEMUYT RAPHAËL45FRACEPAL1:36:401:36:524:35 13.13628841000
15.3519PAQUET RAPHAËL40BEL1:37:131:37:204:36 13.0765877LES FOSSÉS
16.3608MOULIN ALEXANDRE46FRA1:37:201:37:274:36 13.0567874LAFORÊT
17.2421GUSTIN JÉRÔME43BELRCNAMUR1:40:021:40:084:44 12.7077842
18.751DETEZ VALERY45BELETCHIEVRES1:40:251:40:414:45 12.6481836ROSIÈRES
19.2417MARTHOZ DAMIEN49BEL1:41:111:41:284:48 12.5488824
20.68MASURE ALEXANDRE49BELRCNAMUR1:41:261:41:334:48 12.5389821LEUZE ( EGHEZÉE )
21.1458VANDENBUSSCHE JÉRÉMIE41BELRESC1:41:261:41:334:48 12.5390821JETTE
22.3484PORTUGAL FREDERICO42PRTRCNAMUR1:42:061:42:124:50 12.4597810NAMUR
23.2360PEPIN CEDRIC41BEL1:43:091:43:344:54 12.28107794FLAWINNE
24.3410MARSIN GAÉTAN44BELRCBMYSTERE1:43:571:44:034:55 12.23108786UCCLE
25.462PONCELET ETIENNE49BEL1:44:211:44:294:56 12.18113779RIENNE
26.3407LEFEBVRE SÉBASTIEN46BELSHARKSSHARKS1:44:201:44:484:57 12.14118776COUVIN
27.1412SOMMELETTE PASCAL46BEL1:44:581:45:174:58 12.08124766LIÈGE
28.641BRUNIN CHRISTOPHE45BELGAG1:45:211:45:294:59 12.06126761GEMBLOUX
29.956BARTOSZUK ROMAN45BELRCB1:45:551:46:065:01 11.99128755ZAVENTEM
30.3341PIERARD OLIVIER42BEL1:46:061:46:175:01 11.97129753SARS-LA-BUISSIÈRE
31.1460DELNEUFCOURT OLIVIER43BELRESC1:48:351:48:435:08 11.70139724ZELLIK
32.1457NUYTTEN FRÉDÉRIC47BELACCO1:48:401:48:495:08 11.69140723MARIEMBOURG
33.1381VANDERMOTTEN LAURENT45BELJET1:49:191:49:325:10 11.61148712LENNIK
34.3409DEGEIMBRE SAN48BELBIOTRAIL1:49:141:49:355:11 11.61149712TEMPLOUX
35.731DEPOUILLE HENRI-FRANÇOIS41BELCSFMYSTERE1:50:211:50:315:13 11.51156698NIVELLES
36.1408LAVOINE FABIEN48FRAASMARC1:50:491:51:035:15 11.4615969262100
37.2376MESTRÉ FRÉDÉRIC47BELESM1:51:151:51:335:16 11.40162686
38.823DUMOULIN LAURENT49BEL1:51:301:51:525:17 11.37163684MONS
39.1468GERARD ALAIN48BELRCBRCB1:51:571:52:055:18 11.35165679IXELLES
40.1425MERCENIER DIDIER48BELZATAC NAMUR1:52:171:52:385:19 11.29168674VEDRIN
41.78DUTRIEUX FERNAND48BEL1:53:261:53:325:22 11.20176659BAUDOUR
42.3469CARRON TOM45BELPETANQUECLUB DVB1:53:261:53:455:22 11.18178658RIJMENAM
43.3437SAAL VINCENT44BELLES EOLES1:53:401:53:505:23 11.17180655VERLAINE
44.1389ZERGHE PIERRE46BELNAC1:55:021:55:085:26 11.05191636NIVELLES
45.2437SCHEPERS ANDRE45BELTEAM MAHIA1:55:411:55:505:28 10.98194629
46.695DE DAPPER DAVID46BELCSFMYSTERE1:57:031:57:145:32 10.85204611BRUXELLES
47.2354GILSON MATHIEU40BEL1:57:301:57:505:34 10.80212603BEAURAING
48.3498VAN ENDE JÉRÉMIE43BEL1:58:001:58:005:34 10.78214597EGHEZÉE
49.1424SLABBINCK HENDRIK41BELVONDELHOF1:58:051:58:205:35 10.75221592DENDERHOUTEM
50.1451VAN WEYENBERG NICO42BEL1:58:071:58:225:35 10.75222591DENDERHOUTEM
51.2401CORDEWENER JOËL44FRAAC FRONTIÈRES1:57:551:58:265:36 10.74223592MAUBERT-FONTAINE
52.2423BIERWISCH JEAN-MICHEL47BEL1:58:361:58:455:37 10.71226585
53.1395BOMBLED CHRISTOPHE46BEL1:58:471:59:065:38 10.68231580CERFONTAINE
54.709LOMBART LUC49BELUACUAC1:58:551:59:085:38 10.68232579FERNELMONT
55.2358FALLIER STÉPHANE42BEL1:59:021:59:215:38 10.66234576GENTINNES
56.3344GHYSSELINCKX CHRISTOPHE40BELJAMES2:00:162:00:265:41 10.56242561LOUVAIN-LA-NEUVE
57.232GARCIA FRANÇOIS-DAVID43BEL2:01:072:01:135:44 10.49251549LONZÉE
58.388BUCHET FREDERIC47BELUSBWMYSTERE2:02:052:02:165:47 10.40253540BRAINE-L'ALLEUD
59.3464VERMAELEN JOHAN43BEL2:01:552:02:285:47 10.39256539HOLSBEEK
60.3347HAULOTTE OLIVIER45BELJE COURS À INCOURT2:03:382:03:595:51 10.26267519PERWEZ
61.3610MARTIN OLIVIER42BEL2:04:092:04:455:54 10.20274511LIMELETTE
62.3456MOURTADA KARIM42BELLDLV2:05:022:05:145:55 10.16279501BRUXELLES
63.940MAAS STIJN42BEL2:04:472:05:405:56 10.12282501LAKEN
64.1471VAN QUEKELBERGHE PETER43BEL2:07:582:08:216:04 9.91295469HERNE
65.3481LEFEBVRE RONALD49BELRCE2:08:072:08:246:04 9.91298465LEERS-NORD
66.322THONON OLIVIER47BELHACRUNNING TEAM CONDROZ2:08:072:08:266:04 9.90300464NEUPRÉ
67.630DELHOVE FRANÇOIS41BELNAC2:09:372:09:526:08 9.79313445BAULERS
68.2341HALLET PHILIPPE48BELLE JOUR2:09:402:10:036:09 9.78315443WOMMERSOM
69.2370BASTOGNE OLIVIER45BEL2:10:152:10:586:11 9.71327431
70.2381VAN DESSEL GEOFFROY40BELLDLV2:10:352:11:026:11 9.71328428STROMBEEK-BEVER
71.147BIERLAIRE NICOLAS42BELLES BOUFFIOLS2:11:072:11:306:13 9.67330423CHÂTELINEAU
72.514GREVISSE DAVID45BELRONVAU2:11:182:11:386:13 9.66331421DION VALMONT
73.2374NAUTS BENOIT46BEL2:12:102:12:446:16 9.58343407
74.2383TILMONT LAURENT47BEL2:13:172:13:296:18 9.53350395
75.2353CORNELIS PIERRE-YVES44BELCORNELIS2:13:092:13:356:19 9.52351395DONCEEL
76.923CEULEMANS NICOLAS49BELANTILOB2:13:302:13:476:19 9.51356389INCOURT
77.2402LAMAUDIERE STÉPHANE47FRARCBRCB-GAL2:13:322:13:496:19 9.51357388IXELLES
78.1354GEERAERT CHRISTOPHE48FRACHOOZ BOAR TEAM2:14:392:15:046:23 9.42366375LOON PLAGE
79.2425HELLEPUTTE DAMIEN44BEL2:14:362:15:236:24 9.40367375
80.3467GEORGES CÉDRIC40BELFERNEL2:15:412:16:106:26 9.34373363NOVILLE-LES-BOIS
81.3459JADOT OLIVIER44BELSWDE2:17:062:17:246:29 9.26385345HUY
82.273SABLON DOMINIQUE49BELCRAC2:16:542:17:286:30 9.25386346FORCHIES-LA-MARCHE
83.1441NAVARRO VARO RAFAEL J.47ESP2:17:112:17:376:30 9.24387344BRUXELLES
84.206LEDUC STÉPHANE48BELUAC2:18:432:18:586:34 9.15399326CHATELET
85.3495AMELINCKX DIRK47BEL2:18:262:19:226:35 9.13403325LEMBEEK
86.95MANSY STEVEN46BELJCPMFFLV2:19:342:20:156:37 9.07405316FOSSES-LA-VILLE
87.2344ROZEL GAUTHIER44BELSUKCEST2:21:362:22:376:44 8.92418294
88.951DEGLÉ STEVE41BELSTEVIE ON THE ROAD2:24:192:24:516:50 8.78428269STAMBRUGES
89.3544DAUVIN BENJAMIN43BELCAP2:24:592:25:166:52 8.76430264PONDROME
90.3501LECUYER FRED48BEL2:25:002:25:276:52 8.75432262LES MAZURES
91.383MAGOTTE OLIVIER47BELJAMES2:28:502:29:207:03 8.52454223OTTIGNIES
92.595DELMOTTE MARTIN40BELSPTWAVRE2:32:102:32:377:12 8.34470192KORTENBERG
DNF3531MONIOTTE GILLES-ANTOINE49BELVEDRIN
DNF: did not finish; DSQ: disqualified; Speed in km/h
Page: [1]